When you browse on this site, cookies collect data to enhance your experience and personalize the content and advertising you see.
Visit our Privacy Policy to learn more. By continuing to use the site, you agree to this use of cookies and data.
  • en France
  • Liste des pays
  • À 7 jours
  • Température de l'eau
  • Carte météo
  • Widgets météo
  • user-avatar
    Se connecter

    Météo par heure à Lyon

    Ce jour, 26 Février, Mercredi

    Heure Température Précipitation Vent Pression Humidité
    00:00 +5°C° 0 mm 3 m/s 742 mmHg 85%
    01:00 +5°C° 0.6 mm 3 m/s 741 mmHg 84%
    02:00 +4°C° 0.6 mm 3 m/s 741 mmHg 83%
    03:00 +4°C° 0.6 mm 3 m/s 741 mmHg 81%
    04:00 +4°C° 0.1 mm 3 m/s 741 mmHg 83%
    05:00 +4°C° 0.1 mm 2 m/s 741 mmHg 85%
    06:00 +4°C° 0.1 mm 2 m/s 740 mmHg 86%
    07:00 +3°C° 0.9 mm 3 m/s 741 mmHg 82%
    08:00 +3°C° 0.9 mm 4 m/s 741 mmHg 79%
    09:00 +3°C° 0.9 mm 5 m/s 741 mmHg 75%
    10:00 +3°C° 0.3 mm 6 m/s 741 mmHg 71%
    11:00 +4°C° 0.3 mm 7 m/s 742 mmHg 68%
    12:00 +4°C° 0.3 mm 8 m/s 742 mmHg 64%
    13:00 +4°C° 0.2 mm 7 m/s 742 mmHg 63%
    14:00 +4°C° 0.2 mm 7 m/s 743 mmHg 63%
    15:00 +4°C° 0.2 mm 7 m/s 743 mmHg 62%
    16:00 +4°C° 0.1 mm 6 m/s 744 mmHg 67%
    17:00 +3°C° 0.1 mm 5 m/s 744 mmHg 71%
    18:00 +3°C° 0.1 mm 3 m/s 745 mmHg 76%
    19:00 +2°C° 0 mm 3 m/s 746 mmHg 77%
    20:00 +3°C° 0 mm 2 m/s 746 mmHg 78%
    21:00 +3°C° 0 mm 2 m/s 747 mmHg 80%
    22:00 +2°C° 0 mm 2 m/s 747 mmHg 81%
    23:00 +3°C° 0 mm 1 m/s 747 mmHg 83%

    Demain, 27 Février, Jeudi

    Heure Température Précipitation Vent Pression Humidité
    00:00 +3°C° 0 mm 1 m/s 748 mmHg 85%
    01:00 +3°C° 0 mm 1 m/s 747 mmHg 85%
    02:00 +3°C° 0 mm 1 m/s 747 mmHg 85%
    03:00 +2°C° 0 mm 2 m/s 747 mmHg 85%
    04:00 +2°C° 0 mm 2 m/s 746 mmHg 84%
    05:00 +2°C° 0 mm 2 m/s 746 mmHg 84%
    06:00 +2°C° 0 mm 2 m/s 745 mmHg 84%
    07:00 +2°C° 0 mm 3 m/s 744 mmHg 80%
    08:00 +3°C° 0 mm 4 m/s 743 mmHg 75%
    09:00 +3°C° 0 mm 5 m/s 742 mmHg 71%
    10:00 +3°C° 0.4 mm 6 m/s 742 mmHg 74%
    11:00 +4°C° 0.4 mm 7 m/s 741 mmHg 77%
    12:00 +4°C° 0.4 mm 8 m/s 740 mmHg 81%
    13:00 +4°C° 0.4 mm 7 m/s 740 mmHg 83%
    14:00 +5°C° 0.4 mm 7 m/s 739 mmHg 84%
    15:00 +5°C° 0.4 mm 7 m/s 739 mmHg 86%
    16:00 +5°C° 0.1 mm 6 m/s 739 mmHg 87%
    17:00 +6°C° 0.1 mm 5 m/s 740 mmHg 88%
    18:00 +6°C° 0.1 mm 4 m/s 741 mmHg 88%
    19:00 +7°C° 0.1 mm 3 m/s 742 mmHg 87%
    20:00 +5°C° 0.1 mm 3 m/s 743 mmHg 86%
    21:00 +6°C° 0.1 mm 2 m/s 744 mmHg 85%
    22:00 +5°C° 0 mm 2 m/s 745 mmHg 86%
    23:00 +6°C° 0 mm 1 m/s 746 mmHg 87%

    Après-demain, 28 Février, Vendredi

    Heure Température Précipitation Vent Pression Humidité
    00:00 +5°C° 0 mm 1 m/s 747 mmHg 87%
    01:00 +5°C° 0 mm 1 m/s 748 mmHg 88%
    02:00 +4°C° 0 mm 1 m/s 748 mmHg 88%
    03:00 +3°C° 0 mm 0 m/s 748 mmHg 88%
    04:00 +3°C° 0 mm 0 m/s 749 mmHg 88%
    05:00 +2°C° 0 mm 0 m/s 749 mmHg 89%
    06:00 +2°C° 0 mm 0 m/s 749 mmHg 89%
    07:00 +3°C° 0 mm 0 m/s 749 mmHg 84%
    08:00 +5°C° 0 mm 0 m/s 748 mmHg 79%
    09:00 +7°C° 0 mm 1 m/s 748 mmHg 74%
    10:00 +8°C° 0 mm 1 m/s 748 mmHg 69%
    11:00 +10°C° 0 mm 1 m/s 748 mmHg 64%
    12:00 +10°C° 0 mm 2 m/s 747 mmHg 58%
    13:00 +10°C° 0 mm 2 m/s 747 mmHg 61%
    14:00 +9°C° 0 mm 2 m/s 747 mmHg 63%
    15:00 +9°C° 0 mm 2 m/s 746 mmHg 66%
    16:00 +9°C° 0 mm 2 m/s 746 mmHg 68%
    17:00 +8°C° 0 mm 2 m/s 746 mmHg 71%
    18:00 +8°C° 0 mm 2 m/s 746 mmHg 73%
    19:00 +8°C° 0 mm 2 m/s 746 mmHg 74%
    20:00 +8°C° 0 mm 2 m/s 746 mmHg 75%
    21:00 +8°C° 0 mm 2 m/s 745 mmHg 76%
    22:00 +8°C° 0 mm 2 m/s 745 mmHg 78%
    23:00 +7°C° 0 mm 2 m/s 745 mmHg 80%

    29 Février, Samedi

    Heure Température Précipitation Vent Pression Humidité
    00:00 +7°C° 0 mm 2 m/s 744 mmHg 83%
    01:00 +7°C° 0 mm 2 m/s 743 mmHg 83%
    02:00 +7°C° 0 mm 3 m/s 742 mmHg 83%
    03:00 +7°C° 0 mm 3 m/s 742 mmHg 84%
    04:00 +7°C° 0 mm 3 m/s 741 mmHg 83%
    05:00 +7°C° 0 mm 4 m/s 740 mmHg 83%
    06:00 +7°C° 0 mm 5 m/s 739 mmHg 83%
    07:00 +8°C° 0 mm 6 m/s 739 mmHg 80%
    08:00 +10°C° 0 mm 7 m/s 739 mmHg 76%
    09:00 +11°C° 0 mm 8 m/s 738 mmHg 73%
    10:00 +12°C° 0 mm 8 m/s 738 mmHg 70%
    11:00 +12°C° 0 mm 9 m/s 738 mmHg 66%
    12:00 +13°C° 0 mm 9 m/s 738 mmHg 62%
    13:00 +12°C° 0.3 mm 8 m/s 738 mmHg 67%
    14:00 +12°C° 0.3 mm 7 m/s 738 mmHg 72%
    15:00 +11°C° 0.3 mm 6 m/s 738 mmHg 76%
    16:00 +10°C° 1.6 mm 5 m/s 738 mmHg 78%
    17:00 +11°C° 1.6 mm 4 m/s 739 mmHg 81%
    18:00 +10°C° 1.6 mm 3 m/s 740 mmHg 83%
    19:00 +9°C° 0.1 mm 3 m/s 740 mmHg 82%
    20:00 +9°C° 0.1 mm 2 m/s 741 mmHg 82%
    21:00 +9°C° 0.1 mm 1 m/s 742 mmHg 81%
    22:00 +7°C° 0 mm 2 m/s 742 mmHg 82%
    23:00 +7°C° 0 mm 2 m/s 742 mmHg 82%

    1 Mars, Dimanche

    Heure Température Précipitation Vent Pression Humidité
    00:00 +6°C° 0 mm 2 m/s 742 mmHg 82%
    01:00 +6°C° 0 mm 2 m/s 742 mmHg 81%
    02:00 +5°C° 0 mm 3 m/s 741 mmHg 80%
    03:00 +4°C° 0 mm 3 m/s 741 mmHg 79%
    04:00 +4°C° 0 mm 3 m/s 741 mmHg 80%
    05:00 +5°C° 0 mm 2 m/s 742 mmHg 82%
    06:00 +4°C° 0 mm 2 m/s 742 mmHg 83%
    07:00 +5°C° 0.1 mm 2 m/s 742 mmHg 81%
    08:00 +5°C° 0.1 mm 3 m/s 742 mmHg 79%
    09:00 +8°C° 0.1 mm 3 m/s 742 mmHg 77%
    10:00 +9°C° 0 mm 3 m/s 741 mmHg 71%
    11:00 +10°C° 0 mm 4 m/s 741 mmHg 64%
    12:00 +11°C° 0 mm 4 m/s 740 mmHg 58%
    13:00 +10°C° 0.1 mm 5 m/s 740 mmHg 59%
    14:00 +10°C° 0.1 mm 5 m/s 739 mmHg 61%
    15:00 +10°C° 0.1 mm 6 m/s 738 mmHg 62%
    16:00 +9°C° 0.3 mm 6 m/s 738 mmHg 67%
    17:00 +9°C° 0.3 mm 6 m/s 737 mmHg 71%
    18:00 +8°C° 0.3 mm 6 m/s 737 mmHg 76%
    19:00 +8°C° 0.2 mm 7 m/s 738 mmHg 76%
    20:00 +8°C° 0.2 mm 7 m/s 738 mmHg 76%
    21:00 +8°C° 0.2 mm 7 m/s 739 mmHg 76%
    22:00 +7°C° 0 mm 5 m/s 739 mmHg 79%
    23:00 +6°C° 0 mm 4 m/s 740 mmHg 81%

    2 Mars, Lundi

    Heure Température Précipitation Vent Pression Humidité
    00:00 +6°C° 0 mm 2 m/s 740 mmHg 84%
    01:00 +6°C° 0 mm 2 m/s 740 mmHg 85%
    02:00 +6°C° 0 mm 2 m/s 740 mmHg 86%
    03:00 +5°C° 0 mm 3 m/s 739 mmHg 87%
    04:00 +5°C° 0 mm 3 m/s 739 mmHg 86%
    05:00 +5°C° 0 mm 3 m/s 738 mmHg 85%
    06:00 +5°C° 0 mm 3 m/s 737 mmHg 84%
    07:00 +7°C° 0.1 mm 3 m/s 736 mmHg 82%
    08:00 +8°C° 0.1 mm 3 m/s 735 mmHg 80%
    09:00 +9°C° 0.1 mm 3 m/s 735 mmHg 78%
    10:00 +9°C° 0.9 mm 3 m/s 734 mmHg 81%
    11:00 +9°C° 0.9 mm 2 m/s 733 mmHg 84%
    12:00 +9°C° 0.9 mm 1 m/s 732 mmHg 87%
    13:00 +8°C° 1.9 mm 2 m/s 732 mmHg 88%
    14:00 +7°C° 1.9 mm 2 m/s 732 mmHg 90%
    15:00 +7°C° 1.9 mm 3 m/s 731 mmHg 91%
    16:00 +7°C° 0.3 mm 2 m/s 731 mmHg 92%
    17:00 +7°C° 0.3 mm 2 m/s 732 mmHg 92%
    18:00 +7°C° 0.3 mm 1 m/s 732 mmHg 92%
    19:00 +7°C° 0 mm 1 m/s 732 mmHg 92%
    20:00 +7°C° 0 mm 1 m/s 733 mmHg 92%
    21:00 +6°C° 0 mm 0 m/s 733 mmHg 92%
    22:00 +6°C° 0 mm 0 m/s 734 mmHg 92%
    23:00 +6°C° 0 mm 0 m/s 734 mmHg 92%
    Voir plus